TimeCDT,TemperatureF,Dew PointF,Humidity,Sea Level PressureIn,VisibilityMPH,Wind Direction,Wind SpeedMPH,Gust SpeedMPH,PrecipitationIn,Events,Conditions,WindDirDegrees,DateUTC
12:54 AM,48.9,46.0,90,30.00,7.0,Calm,Calm,-,N/A,,Clear,0,2012-11-01 05:54:00
1:54 AM,46.0,44.1,93,30.01,8.0,Calm,Calm,-,N/A,,Clear,0,2012-11-01 06:54:00
2:54 AM,45.0,43.0,93,30.00,8.0,Calm,Calm,-,N/A,,Clear,0,2012-11-01 07:54:00
3:54 AM,45.0,43.0,93,30.01,7.0,Calm,Calm,-,N/A,,Clear,0,2012-11-01 08:54:00
4:54 AM,45.0,43.0,93,30.02,8.0,Calm,Calm,-,N/A,,Clear,0,2012-11-01 09:54:00
5:54 AM,44.1,42.1,93,30.03,8.0,Calm,Calm,-,N/A,,Clear,0,2012-11-01 10:54:00
6:54 AM,44.1,41.0,89,30.04,7.0,Calm,Calm,-,N/A,,Clear,0,2012-11-01 11:54:00
7:54 AM,43.0,42.1,97,30.06,6.0,Calm,Calm,-,N/A,,Clear,0,2012-11-01 12:54:00
8:54 AM,52.0,48.9,89,30.08,6.0,Calm,Calm,-,N/A,,Clear,0,2012-11-01 13:54:00
9:54 AM,60.1,50.0,69,30.09,10.0,Calm,Calm,-,N/A,,Clear,0,2012-11-01 14:54:00
10:54 AM,66.9,43.0,42,30.09,10.0,Calm,Calm,-,N/A,,Clear,0,2012-11-01 15:54:00
11:54 AM,69.1,42.1,38,30.08,10.0,Calm,Calm,-,N/A,,Clear,0,2012-11-01 16:54:00
12:54 PM,70.0,41.0,35,30.05,10.0,Variable,3.5,-,N/A,,Clear,0,2012-11-01 17:54:00
1:54 PM,72.0,43.0,35,30.02,10.0,Calm,Calm,-,N/A,,Clear,0,2012-11-01 18:54:00
2:54 PM,75.0,43.0,32,30.00,10.0,Variable,3.5,-,N/A,,Clear,0,2012-11-01 19:54:00
3:54 PM,75.0,44.1,33,29.99,10.0,NW,5.8,-,N/A,,Clear,320,2012-11-01 20:54:00
4:54 PM,75.0,45.0,34,29.99,10.0,WNW,4.6,-,N/A,,Clear,290,2012-11-01 21:54:00
5:54 PM,66.0,51.1,59,29.99,10.0,NE,3.5,-,N/A,,Clear,50,2012-11-01 22:54:00
6:54 PM,57.0,48.9,74,30.00,10.0,Calm,Calm,-,N/A,,Clear,0,2012-11-01 23:54:00
7:54 PM,55.0,48.0,77,30.00,10.0,Calm,Calm,-,N/A,,Clear,0,2012-11-02 00:54:00
8:54 PM,55.9,48.9,77,30.01,10.0,Calm,Calm,-,N/A,,Clear,0,2012-11-02 01:54:00
9:54 PM,51.1,46.0,83,30.01,10.0,Calm,Calm,-,N/A,,Clear,0,2012-11-02 02:54:00
10:54 PM,53.1,46.9,80,30.01,10.0,Calm,Calm,-,N/A,,Clear,0,2012-11-02 03:54:00
11:54 PM,52.0,46.9,83,30.00,10.0,Calm,Calm,-,N/A,,Clear,0,2012-11-02 04:54:00